[[{"header":{"parameterUnit":"m.s-1","parameterCategory":1,"la1":30.2991,"la2":30.254,"lo1":-89.0895,"lo2":-89.0444,"dy":0.0017,"dx":0.0017,"nx":28,"ny":28,"refTime":"2024-06-25T03:00:00:Z","depth":0,"parameterNumber":2,"parameterNumberName":"U-component_of_WINDS"},"data":[0,0,0,0,0,0,0,0,0,0,0,0,0,0,0,0,0,0,0,0,0,0,0,0,0,0,0,0,0,0,0,0,0,0,0,0,0,0,0,0,0,0,0,0,0,0,0,0,0,0,0,0,0,0,0,0,0,0,1.8046,1.8048,0,1.8181,1.8183,1.8184,1.8166,1.8164,1.8162,1.8159,1.8303,1.8309,1.8314,0,0,0,0,0,0,0,0,0,0,0,0,0,1.7778,1.7783,1.8046,1.8048,1.805,1.8181,1.8183,1.8185,1.8166,1.8164,1.8161,1.8158,1.8301,1.8308,1.8315,0,0,0,0,0,0,0,0,0,0,0,0,0,1.7902,1.7785,1.8046,1.8056,1.8058,1.8181,1.8183,1.8185,1.8167,1.8164,1.816,1.8157,1.8299,1.8307,1.8316,1.8438,0,0,1.8343,1.8347,0,0,0,0,0,0,0,0,1.7895,1.7912,1.8053,1.8056,1.8058,1.8153,1.8141,1.827,1.8168,1.8126,1.8159,1.8155,1.8256,1.8268,1.8301,1.8445,1.8451,1.8344,1.8349,1.8353,1.8355,0,0,0,0,0,0,0,1.7887,1.7906,1.81,1.8055,1.8058,1.8056,1.807,1.8165,1.8209,1.8129,1.8128,1.8144,1.8257,1.8293,1.8304,1.8453,1.8344,1.8351,1.8357,1.836,1.8706,1.871,0,0,0,0,0,0,1.7875,1.7899,1.8095,1.8104,1.7967,1.8063,1.8079,1.8126,1.8207,1.8216,1.8147,1.8143,1.8279,1.8294,1.8309,1.8459,1.8353,1.8361,1.8366,1.8702,1.8707,1.8711,0,0,0,0,0,0,1.7869,1.7892,1.809,1.8001,1.8026,1.8072,1.8125,1.8131,1.8166,1.8221,1.8229,1.8175,1.8277,1.8297,1.8406,1.8464,1.8365,1.8373,1.8698,1.8704,1.8709,1.8759,0,0,0,0,0,0,1.7861,1.789,1.7936,1.8002,1.8031,1.8183,1.8128,1.8136,1.8181,1.8177,1.8249,1.8258,1.8276,1.8393,1.8415,1.8474,1.838,1.8693,1.87,1.8707,1.8752,1.8765,1.8777,0,0,0,0,0,1.7852,1.7945,1.7938,1.7962,1.8089,1.8186,1.8203,1.822,1.8186,1.8233,1.8268,1.8256,1.8454,1.8405,1.8429,1.8492,1.8689,1.8698,1.8707,1.8747,1.8763,1.8777,0,0,0,0,0,0,1.7886,1.7954,1.7947,1.8064,1.812,1.8183,1.8243,1.8237,1.8304,1.8298,1.8318,1.8335,1.8446,1.848,1.8424,1.8615,1.8567,1.8581,1.8589,1.8605,1.8617,1.8607,1.8388,0,0,0,0,0,1.7906,1.7978,1.8035,1.8133,1.8161,1.8197,1.8241,1.8249,1.8308,1.8332,1.8375,1.8434,1.8509,1.8559,1.8631,1.8757,1.8773,1.8812,1.8824,1.8834,1.8847,1.8917,1.8936,1.874,1.874,1.8739,0,0,1.7951,1.7997,1.8041,1.8141,1.8185,1.8261,1.8217,1.8299,1.8357,1.8345,1.8451,1.8484,1.8552,1.867,1.8724,1.8702,1.8904,1.8845,1.8853,1.886,1.8928,1.8947,1.8963,1.8745,1.8744,1.8743,0,0,1.807,1.8112,1.8199,1.8244,1.831,1.8334,1.8355,1.842,1.8441,1.8547,1.854,1.861,1.8739,1.8788,1.883,1.8969,1.8961,1.8992,1.9057,1.9126,1.9142,1.9155,1.9207,1.9225,1.9004,1.9004,1.9004,0,1.8118,1.823,1.8245,1.8328,1.8373,1.8364,1.8454,1.8497,1.8585,1.8617,1.859,1.8753,1.8798,1.8928,1.8962,1.8996,1.9022,1.8985,1.9138,1.9152,1.9165,1.9214,1.9233,1.9008,1.9007,1.9007,1.9007,0,1.8286,1.8364,1.8427,1.851,1.8562,1.8648,1.8678,1.8729,1.8734,1.8761,1.887,1.8924,1.9007,1.9039,1.9044,1.9171,1.9155,1.9133,1.9085,1.9187,1.9234,1.9253,1.9013,1.9012,1.9011,1.901,0,0,1.8431,1.8521,1.8544,1.8583,1.8656,1.8718,1.8804,1.8885,1.8929,1.899,1.9065,1.9175,1.9155,1.9203,1.9214,1.9274,1.9383,1.9244,1.9246,1.9269,1.9528,1.9545,1.9566,1.9377,1.9381,1.9384,1.9523,0,1.8558,1.871,1.8726,1.8862,1.8936,1.8929,1.9005,1.9059,1.9087,1.9156,1.9187,1.9265,1.9232,1.9261,1.932,1.9357,1.9435,1.9347,1.9449,1.9453,1.9433,1.959,1.9608,1.9736,1.9541,1.9544,1.9546,0,1.8728,1.8792,1.8936,1.9,1.9031,1.9099,1.9175,1.924,1.9302,1.9318,1.9371,1.9375,1.9467,1.9414,1.9542,1.9482,1.9524,1.9549,1.9554,1.9566,1.9506,1.9607,1.9778,1.9797,1.9575,1.9572,1.957,0,1.8821,1.8944,1.9046,1.9079,1.9156,1.9204,1.9238,1.9297,1.9345,1.9412,1.9444,1.9521,1.9564,1.9624,1.965,1.9609,1.9777,1.9726,1.9795,1.9794,1.9831,1.9829,2.0012,1.9857,1.9856,1.9856,1.9856,0,1.8963,1.9051,1.9089,1.9152,1.9251,1.927,1.9368,1.9401,1.9454,1.9524,1.9523,1.959,1.9618,1.969,1.9711,1.9814,1.9833,1.9851,1.9855,1.9851,1.9849,1.988,1.9873,1.9861,1.986,1.9859,1.9858,0,1.9084,1.9112,1.9223,1.9287,1.9305,1.9376,1.9431,1.9493,1.952,1.961,1.9632,1.9676,1.976,1.9791,1.9894,1.9908,2.0028,2.0025,2.0007,2.0008,2.0076,2.0069,2.0287,2.0317,2.014,2.0142,2.0143,0,1.9173,1.924,1.9311,1.9358,1.9394,1.9469,1.9518,1.9539,1.9591,1.9667,1.972,1.9804,1.9872,2.0008,2.005,2.0129,2.0129,2.0199,2.0141,2.0135,2.0132,2.0128,2.0135,2.0211,2.0213,2.0214,2.0215,0,1.9328,1.9339,1.9409,1.9484,1.9542,1.9602,1.9661,1.97,1.973,1.9788,1.9874,1.9927,2.0032,2.0116,2.0197,2.0235,2.0232,2.0233,2.0254,2.0251,2.0238,2.0247,2.0038,2.0228,2.0227,2.0226,2.0225,2.0225,1.9437,1.9497,1.9557,1.9635,1.9681,1.9736,1.9798,1.9833,1.9904,1.999,1.9999,2.0092,2.0154,2.0263,2.0305,2.0379,2.036,2.0389,2.0397,2.0404,2.0409,2.0225,2.0394,2.0393,2.0393,2.0393,2.0393,0,1.9594,1.9632,1.9703,1.9785,1.9847,1.9836,1.9901,1.9954,2.0035,2.0093,2.016,2.0259,2.0341,2.0389,2.0472,2.0522,2.0523,2.0543,2.054,2.0549,2.0421,2.0396,2.0541,2.0541,2.0541,2.0541,2.0541,2.0541,1.9683,1.9785,1.9803,1.9929,1.9967,2.0057,2.0095,2.0146,2.0193,2.0303,2.0371,2.0401,2.0456,2.0542,2.0617,2.063,2.0661,2.0683,2.0694,2.0573,2.0558,2.0544,2.052,2.0689,2.069,2.0817,2.0818,2.0819]},{"header":{"parameterUnit":"m.s-1","parameterCategory":1,"la1":30.2991,"la2":30.254,"lo1":-89.0895,"lo2":-89.0444,"dy":0.0017,"dx":0.0017,"nx":28,"ny":28,"refTime":"2024-06-25T03:00:00:Z","depth":0,"parameterNumber":3,"parameterNumberName":"V-component_of_WINDS"},"data":[0,0,0,0,0,0,0,0,0,0,0,0,0,0,0,0,0,0,0,0,0,0,0,0,0,0,0,0,0,0,0,0,0,0,0,0,0,0,0,0,0,0,0,0,0,0,0,0,0,0,0,0,0,0,0,0,0,0,1.5075,1.5076,0,1.5151,1.5152,1.5153,1.5197,1.5197,1.5198,1.5198,1.5273,1.5275,1.5276,0,0,0,0,0,0,0,0,0,0,0,0,0,1.4963,1.4965,1.5075,1.5076,1.5077,1.5151,1.5152,1.5153,1.5197,1.5197,1.5198,1.5198,1.5272,1.5274,1.5277,0,0,0,0,0,0,0,0,0,0,0,0,0,1.5023,1.4966,1.5075,1.5108,1.5112,1.5151,1.5152,1.5153,1.5197,1.5197,1.5198,1.5198,1.5272,1.5274,1.5277,1.5288,0,0,1.5285,1.5286,0,0,0,0,0,0,0,0,1.5019,1.5027,1.5102,1.5106,1.511,1.5165,1.514,1.5198,1.5197,1.5165,1.5198,1.5198,1.5236,1.5242,1.5256,1.5291,1.5295,1.5285,1.5287,1.5288,1.5289,0,0,0,0,0,0,0,1.5015,1.5024,1.5105,1.5103,1.5108,1.5117,1.5126,1.5151,1.5198,1.5167,1.5171,1.5179,1.5239,1.5253,1.5258,1.5296,1.5285,1.5288,1.5289,1.529,1.5341,1.5341,0,0,0,0,0,0,1.5006,1.502,1.5102,1.5107,1.5064,1.5119,1.5129,1.5147,1.5198,1.5206,1.5179,1.5181,1.5248,1.5255,1.5261,1.5275,1.5288,1.5291,1.5292,1.5341,1.5341,1.5341,0,0,0,0,0,0,1.5004,1.5013,1.5099,1.5065,1.5076,1.5121,1.5141,1.5148,1.5163,1.5207,1.5215,1.5185,1.5249,1.5257,1.528,1.5278,1.5292,1.5294,1.5342,1.5341,1.5341,1.5305,0,0,0,0,0,0,1.5,1.5012,1.5018,1.5064,1.5078,1.5119,1.5141,1.515,1.5168,1.5171,1.5215,1.5222,1.5249,1.5276,1.5283,1.5282,1.5297,1.5342,1.5341,1.5341,1.5307,1.5303,1.5301,0,0,0,0,0,1.4996,1.5005,1.5018,1.5028,1.5087,1.5119,1.5127,1.5159,1.5167,1.5173,1.52,1.5221,1.5277,1.5278,1.5286,1.5286,1.5342,1.5342,1.5341,1.5308,1.5304,1.5301,0,0,0,0,0,0,1.4957,1.5012,1.5027,1.5052,1.508,1.5127,1.5135,1.5154,1.5181,1.5183,1.522,1.523,1.5249,1.527,1.527,1.5298,1.5312,1.5313,1.5284,1.5281,1.5278,1.5272,1.5299,0,0,0,0,0,1.4951,1.4975,1.5021,1.5038,1.5051,1.509,1.5106,1.5128,1.5159,1.5171,1.5201,1.5229,1.5253,1.5268,1.5293,1.531,1.5318,1.5313,1.5311,1.5308,1.5308,1.5316,1.5314,1.5338,1.5338,1.5338,0,0,1.494,1.4973,1.4985,1.503,1.5056,1.5077,1.51,1.5123,1.5138,1.5174,1.5198,1.522,1.5254,1.5274,1.5284,1.5292,1.5303,1.5307,1.5305,1.5307,1.5315,1.5313,1.5311,1.5338,1.5338,1.5338,0,0,1.493,1.4958,1.4974,1.4998,1.5035,1.5061,1.5064,1.5107,1.5123,1.5148,1.5174,1.5192,1.5234,1.5256,1.5273,1.5267,1.5286,1.5274,1.5259,1.5266,1.5264,1.5262,1.5259,1.5257,1.5274,1.5274,1.5274,0,1.4911,1.4946,1.4979,1.5,1.5018,1.5051,1.5066,1.5087,1.513,1.5141,1.515,1.52,1.5226,1.525,1.5248,1.5261,1.5264,1.5269,1.5262,1.5261,1.526,1.5256,1.5255,1.5272,1.5272,1.5273,1.5273,0,1.4919,1.4942,1.495,1.4991,1.501,1.5027,1.5062,1.5077,1.5096,1.512,1.5142,1.5174,1.5204,1.5211,1.5231,1.5237,1.5241,1.5255,1.5269,1.5255,1.5252,1.5252,1.527,1.527,1.5271,1.5271,0,0,1.4889,1.4946,1.4948,1.4966,1.5008,1.5026,1.5043,1.5073,1.5084,1.5111,1.5126,1.5158,1.5171,1.519,1.5211,1.5218,1.5209,1.5231,1.5232,1.5224,1.5215,1.5204,1.5202,1.5221,1.5221,1.5221,1.5212,0,1.4884,1.4919,1.4948,1.4971,1.4991,1.5021,1.5036,1.5062,1.5084,1.5103,1.5127,1.5149,1.5164,1.5175,1.5183,1.5208,1.5207,1.5209,1.5233,1.5234,1.5223,1.5201,1.519,1.518,1.5211,1.5211,1.5211,0,1.4885,1.491,1.4935,1.4972,1.4982,1.4995,1.5023,1.5041,1.507,1.5085,1.5105,1.5127,1.5144,1.5156,1.518,1.518,1.5192,1.5205,1.5205,1.5208,1.5221,1.5202,1.5177,1.5175,1.521,1.521,1.521,0,1.4858,1.4899,1.4919,1.4933,1.4977,1.4985,1.5003,1.5033,1.5048,1.5072,1.5081,1.5107,1.5121,1.5139,1.5166,1.5173,1.5186,1.5201,1.5197,1.5196,1.5199,1.5198,1.5174,1.5207,1.5207,1.5207,1.5207,0,1.485,1.4864,1.4907,1.4919,1.4934,1.4966,1.498,1.5001,1.5026,1.5041,1.5068,1.5081,1.5117,1.5134,1.5155,1.517,1.5176,1.5187,1.5193,1.5185,1.5183,1.5192,1.5193,1.5207,1.5207,1.5207,1.5207,0,1.4825,1.4854,1.4877,1.4916,1.4926,1.4935,1.4968,1.4979,1.5001,1.5019,1.5025,1.506,1.508,1.5109,1.5139,1.5153,1.5164,1.5174,1.5155,1.5158,1.5152,1.5152,1.5133,1.5131,1.5165,1.5165,1.5165,0,1.4817,1.4828,1.4868,1.4879,1.4897,1.4916,1.4931,1.4962,1.4976,1.5008,1.5015,1.5037,1.5057,1.5089,1.5115,1.5137,1.5147,1.5138,1.515,1.5141,1.5145,1.5143,1.5143,1.5135,1.5135,1.5134,1.5134,0,1.4801,1.4814,1.4835,1.486,1.4877,1.4898,1.492,1.4928,1.4963,1.4977,1.4999,1.5014,1.5043,1.5064,1.5089,1.5107,1.5125,1.513,1.513,1.5122,1.5109,1.5114,1.5146,1.513,1.5131,1.5131,1.5131,1.5131,1.4784,1.4794,1.4822,1.4843,1.4863,1.4882,1.4894,1.4916,1.4935,1.4961,1.4978,1.4998,1.5023,1.5059,1.5075,1.5089,1.5097,1.5098,1.5098,1.5097,1.5093,1.5107,1.5094,1.5094,1.5094,1.5094,1.5095,0,1.4768,1.4786,1.4806,1.4835,1.4851,1.4867,1.4891,1.4903,1.492,1.4943,1.4961,1.4983,1.5003,1.503,1.5052,1.5058,1.5067,1.5063,1.5062,1.5065,1.5086,1.5083,1.5055,1.5055,1.5055,1.5055,1.5055,1.5055,1.4761,1.4778,1.4794,1.4819,1.4838,1.4857,1.487,1.4886,1.4904,1.4928,1.4945,1.4962,1.4985,1.5008,1.5026,1.5033,1.5039,1.5032,1.5041,1.506,1.5064,1.5068,1.5065,1.5033,1.5033,1.5019,1.5019,1.5019]}]]